Weather History for Delaware, OH

Change the Weather History Date:

Friday, January 24, 2014

  Actual Average Record
Temperature  
Mean Temperature 7 °F -  
Max Temperature 19 °F 37 °F 67 °F (1967)
Min Temperature -5 °F 17 °F -19 °F (1963)
Degree Days  
Heating Degree Days 58    
Moisture  
Dew Point -4 °F    
Average Humidity 68    
Maximum Humidity 85    
Minimum Humidity 49    
Precipitation  
Precipitation 0.00 in - - ()
Sea Level Pressure  
Sea Level Pressure 30.25 in    
Wind  
Wind Speed 10 mph (SSW)    
Max Wind Speed 24 mph    
Max Gust Speed 36 mph    
Visibility 10 miles    
Events Snow    
Averages and records for this station are not official NWS values.
T = Trace of Precipitation, MM = Missing Value Source: NWS Daily Summary

Daily Weather History Graph

Daily Weather History Graph

Search for Another Location

Airport:

Trip Planner

Search our weather history database for the weather conditions in past years. The results will help you decide how hot, cold, wet, or windy it might be!

Date:

Astronomy

Jan. 24, 2014 Rise Set
Actual Time 7:48 AM EST 5:41 PM EST
Civil Twilight 7:18 AM EST 6:10 PM EST
Nautical Twilight 6:45 AM EST 6:43 PM EST
Astronomical Twilight 6:13 AM EST 7:15 PM EST
Moon 1:14 AM EST (1/24) 11:59 AM EST (1/24)
Length of Visible Light 10h 51m
Length of Day
9h 53m
Last Quarter, 45% of the Moon is Illuminated
Jan 24
Last Quarter
Jan 30
New
Feb 6
First Quarter
Feb 14
Full
Feb 22
Last Quarter

Hourly Weather History & Observations

Time (EST) Temp. Windchill Dew Point Humidity Pressure Visibility Wind Dir Wind Speed Gust Speed Precip Events Conditions
12:15 AM -4.0 °F -14.6 °F -7.6 °F 85% 30.51 in 10.0 mi SW 4.6 mph - N/A   Clear
12:35 AM -4.0 °F -14.6 °F -9.4 °F 78% 30.52 in 10.0 mi SW 4.6 mph - N/A   Clear
12:55 AM -4.0 °F -12.4 °F -9.4 °F 78% 30.51 in 10.0 mi SW 3.5 mph - N/A   Clear
1:15 AM -4.0 °F -12.4 °F -7.6 °F 85% 30.51 in 10.0 mi SW 3.5 mph - N/A   Clear
1:35 AM -5.8 °F -14.5 °F -9.4 °F 84% 30.50 in 10.0 mi SW 3.5 mph - N/A   Clear
1:55 AM -5.8 °F -14.5 °F -9.4 °F 84% 30.50 in 10.0 mi SW 3.5 mph - N/A   Clear
2:15 AM -4.0 °F -12.4 °F -9.4 °F 78% 30.51 in 10.0 mi SSW 3.5 mph - N/A   Clear
2:35 AM -4.0 °F -16.3 °F -9.4 °F 78% 30.52 in 10.0 mi SW 5.8 mph - N/A   Clear
2:55 AM -4.0 °F -12.4 °F -9.4 °F 78% 30.51 in 10.0 mi SW 3.5 mph - N/A   Clear
3:15 AM -4.0 °F -14.6 °F -7.6 °F 85% 30.52 in 10.0 mi SW 4.6 mph - N/A   Clear
3:35 AM -4.0 °F -14.6 °F -9.4 °F 78% 30.52 in 10.0 mi SW 4.6 mph - N/A   Clear
3:55 AM -4.0 °F -14.6 °F -9.4 °F 78% 30.51 in 10.0 mi SSW 4.6 mph - N/A   Clear
4:15 AM -4.0 °F -16.3 °F -7.6 °F 85% 30.51 in 10.0 mi SW 5.8 mph - N/A   Scattered Clouds
4:35 AM -4.0 °F -16.3 °F -7.6 °F 85% 30.50 in 10.0 mi SSW 5.8 mph - N/A   Scattered Clouds
4:55 AM -4.0 °F -16.3 °F -7.6 °F 85% 30.50 in 10.0 mi SSW 5.8 mph - N/A   Clear
5:15 AM -4.0 °F -17.8 °F -7.6 °F 85% 30.50 in 10.0 mi SSW 6.9 mph - N/A   Clear
5:35 AM -4.0 °F -17.8 °F -9.4 °F 78% 30.49 in 10.0 mi SW 6.9 mph - N/A   Clear
5:55 AM -4.0 °F -16.3 °F -9.4 °F 78% 30.49 in 10.0 mi SSW 5.8 mph - N/A   Clear
6:15 AM -4.0 °F -16.3 °F -9.4 °F 78% 30.49 in 10.0 mi SW 5.8 mph - N/A   Clear
6:35 AM -4.0 °F -16.3 °F -9.4 °F 78% 30.48 in 10.0 mi SSW 5.8 mph - N/A   Clear
6:55 AM -4.0 °F -17.8 °F -9.4 °F 78% 30.48 in 10.0 mi SSW 6.9 mph - N/A   Clear
7:15 AM -4.0 °F -17.8 °F -9.4 °F 78% 30.47 in 10.0 mi SW 6.9 mph - N/A   Clear
7:35 AM -4.0 °F -16.3 °F -9.4 °F 78% 30.47 in 10.0 mi SSW 5.8 mph - N/A   Clear
7:55 AM -5.8 °F -21.2 °F -9.4 °F 84% 30.46 in 10.0 mi SSW 8.1 mph - N/A   Clear
8:15 AM -4.0 °F -19.0 °F -7.6 °F 85% 30.46 in 10.0 mi SSW 8.1 mph - N/A Snow Light Snow
8:35 AM -4.0 °F -20.2 °F -7.6 °F 85% 30.45 in 10.0 mi SSW 9.2 mph - N/A Snow Light Snow
8:55 AM -2.2 °F -18.9 °F -7.6 °F 78% 30.45 in 10.0 mi SW 10.4 mph - N/A   Clear
9:15 AM -0.4 °F -16.7 °F -7.6 °F 72% 30.44 in 10.0 mi SW 10.4 mph - N/A   Clear
9:35 AM -0.4 °F -18.4 °F -5.8 °F 78% 30.44 in 10.0 mi SSW 12.7 mph 16.1 mph N/A   Clear
9:55 AM -0.4 °F -18.4 °F -5.8 °F 78% 30.44 in 10.0 mi SW 12.7 mph - N/A   Clear
10:15 AM 1.4 °F -16.9 °F -5.8 °F 72% 30.42 in 10.0 mi SW 13.8 mph - N/A   Clear
10:35 AM 3.2 °F -14.6 °F -5.8 °F 66% 30.42 in 10.0 mi SSW 13.8 mph 18.4 mph N/A   Clear
10:55 AM 3.2 °F -13.9 °F -5.8 °F 66% 30.39 in 10.0 mi SSW 12.7 mph - N/A   Clear
11:15 AM 3.2 °F -13.9 °F -5.8 °F 66% 30.37 in 10.0 mi SSW 12.7 mph 18.4 mph N/A   Clear
11:35 AM 5.0 °F -13.0 °F -4.0 °F 66% 30.36 in 10.0 mi SW 15.0 mph 21.9 mph N/A   Clear
11:55 AM 6.8 °F -10.0 °F -4.0 °F 61% 30.35 in 10.0 mi SSW 13.8 mph 20.7 mph N/A   Clear
12:15 PM 8.6 °F -9.5 °F -4.0 °F 57% 30.33 in 10.0 mi SSW 17.3 mph 25.3 mph N/A   Clear
12:35 PM 8.6 °F -10.5 °F -4.0 °F 57% 30.32 in 10.0 mi SSW 19.6 mph 25.3 mph N/A   Clear
12:55 PM 8.6 °F -7.7 °F -2.2 °F 62% 30.30 in 10.0 mi SSW 13.8 mph 21.9 mph N/A   Clear
1:15 PM 8.6 °F -10.5 °F -2.2 °F 62% 30.28 in 10.0 mi SSW 19.6 mph 25.3 mph N/A   Clear
1:35 PM 8.6 °F -8.9 °F -2.2 °F 62% 30.26 in 10.0 mi SSW 16.1 mph 29.9 mph N/A   Clear
1:55 PM 8.6 °F -9.5 °F -2.2 °F 62% 30.24 in 10.0 mi SSW 17.3 mph 26.5 mph N/A   Clear
2:15 PM 10.4 °F -7.7 °F -2.2 °F 57% 30.22 in 10.0 mi SSW 18.4 mph 27.6 mph N/A   Clear
2:35 PM 10.4 °F -8.6 °F -0.4 °F 62% 30.20 in 10.0 mi SSW 20.7 mph 28.8 mph N/A   Clear
2:55 PM 10.4 °F -5.4 °F -0.4 °F 62% 30.16 in 10.0 mi SSW 13.8 mph 28.8 mph N/A   Scattered Clouds
3:15 PM 10.4 °F -8.6 °F -0.4 °F 62% 30.14 in 10.0 mi SSW 20.7 mph 29.9 mph N/A   Clear
3:35 PM 10.4 °F -9.9 °F -0.4 °F 62% 30.12 in 10.0 mi South 24.2 mph 33.4 mph N/A   Clear
3:55 PM 10.4 °F -8.2 °F -0.4 °F 62% 30.11 in 10.0 mi SSW 19.6 mph 35.7 mph N/A   Clear
4:15 PM 12.2 °F -5.8 °F -0.4 °F 57% 30.10 in 10.0 mi South 19.6 mph 33.4 mph N/A   Clear
4:35 PM 12.2 °F -6.7 °F -0.4 °F 57% 30.09 in 10.0 mi SSW 21.9 mph 32.2 mph N/A   Clear
4:55 PM 12.2 °F -4.8 °F -0.4 °F 57% 30.07 in 10.0 mi SSW 17.3 mph 27.6 mph N/A   Clear
5:15 PM 12.2 °F -5.3 °F -0.4 °F 57% 30.06 in 10.0 mi South 18.4 mph 33.4 mph N/A   Clear
5:35 PM 12.2 °F -5.3 °F -0.4 °F 57% 30.03 in 10.0 mi South 18.4 mph 29.9 mph N/A   Clear
5:55 PM 12.2 °F -5.3 °F 1.4 °F 62% 30.00 in 10.0 mi South 18.4 mph 29.9 mph N/A   Clear
6:15 PM 12.2 °F -6.3 °F 1.4 °F 62% 29.99 in 10.0 mi South 20.7 mph 31.1 mph N/A   Clear
6:35 PM 12.2 °F -5.8 °F 1.4 °F 62% 29.97 in 10.0 mi South 19.6 mph 28.8 mph N/A   Scattered Clouds
6:55 PM 14.0 °F -3.9 °F 1.4 °F 57% 29.97 in 10.0 mi South 20.7 mph 29.9 mph N/A   Scattered Clouds
7:15 PM 14.0 °F -3.0 °F 1.4 °F 57% 29.95 in 10.0 mi South 18.4 mph 31.1 mph N/A   Scattered Clouds
7:35 PM 14.0 °F -2.5 °F 1.4 °F 57% 29.94 in 10.0 mi South 17.3 mph 31.1 mph N/A   Clear
7:55 PM 14.0 °F -3.4 °F 3.2 °F 62% 29.92 in 10.0 mi SSW 19.6 mph 26.5 mph N/A   Clear
8:15 PM 14.0 °F -3.4 °F 3.2 °F 62% 29.92 in 10.0 mi SSW 19.6 mph 25.3 mph N/A   Scattered Clouds
8:35 PM 15.8 °F -0.2 °F 3.2 °F 58% 29.92 in 10.0 mi SSW 17.3 mph 25.3 mph N/A   Scattered Clouds
8:55 PM 15.8 °F -1.1 °F 3.2 °F 58% 29.90 in 10.0 mi SSW 19.6 mph 27.6 mph N/A   Scattered Clouds
9:15 PM 17.6 °F 0.9 °F 3.2 °F 53% 29.87 in 10.0 mi SSW 20.7 mph 26.5 mph N/A   Scattered Clouds
9:35 PM 17.6 °F 2.7 °F 3.2 °F 53% 29.86 in 10.0 mi SSW 16.1 mph 26.5 mph N/A   Scattered Clouds
9:56 PM 17.6 °F 2.2 °F 3.2 °F 53% 29.85 in 10.0 mi SSW 17.3 mph 25.3 mph N/A   Mostly Cloudy
10:15 PM 17.6 °F 3.7 °F 5.0 °F 58% 29.85 in 10.0 mi SSW 13.8 mph 25.3 mph N/A   Mostly Cloudy
10:35 PM 17.6 °F 3.2 °F 3.2 °F 53% 29.83 in 10.0 mi SSW 15.0 mph 25.3 mph N/A   Mostly Cloudy
10:55 PM 19.4 °F 5.5 °F 3.2 °F 49% 29.82 in 10.0 mi SW 15.0 mph 27.6 mph N/A   Overcast
11:15 PM 19.4 °F 3.6 °F 3.2 °F 49% 29.80 in 10.0 mi SSW 19.6 mph 26.5 mph N/A   Overcast
11:35 PM 19.4 °F 4.5 °F 3.2 °F 49% 29.79 in 10.0 mi SSW 17.3 mph 21.9 mph N/A   Overcast
11:55 PM 19.4 °F 4.1 °F 3.2 °F 49% 29.77 in 10.0 mi SW 18.4 mph 27.6 mph N/A   Overcast